Regional Weather Roundup
Issued by NWS

Current Version | Previous Version | Text Only | Print | Product List | Glossary On
Versions: 1 2 3 4 5 6 7 8 9 10 11 12 13 14 15 16 17 18 19 20 21 22 23 24 25 26 27 28 29 30 31 32 33 34 35 36 37 38 39 40 41 42 43 44 45 46 47 48 49 50
000
ASUS43 KLMK 220510
RWRKY
KENTUCKY REGIONAL WEATHER ROUNDUP
NATIONAL WEATHER SERVICE LOUISVILLE KY
100 AM EDT SUN OCT 22 2017

NOTE "FAIR" INDICATES FEW OR NO CLOUDS BELOW 12,000 FEET
WITH NO SIGNIFICANT WEATHER AND/OR OBSTRUCTIONS TO VISIBILITY.

KYZ001>023-026-027-061>063-070>075-220600-
WESTERN AND SOUTH CENTRAL KENTUCKY

CITY           SKY/WX    TMP DP  RH WIND       PRES   REMARKS
PADUCAH        CLOUDY    71  59  65 S14G22    30.05F
HENDERSON      CLEAR     65  58  78 S10       30.10F
OWENSBORO      CLEAR     64  54  69 SE9       30.13S
HOPKINSVILLE   CLEAR     65  57  76 SE7       30.12F
BOWLING GREEN  CLEAR     61  53  75 CALM      30.16F
GLASGOW        MOCLDY    63  49  62 S3        30.18F
$$

KYZ024-025-028>034-038-045-046-053-220600-
NORTH CENTRAL KENTUCKY

CITY           SKY/WX    TMP DP  RH WIND       PRES   REMARKS
LOUISVILLE/SDF PTCLDY    60  50  69 SE7       30.16F
LOUISVILLE/LOU PTCLDY    61  51  70 SE6       30.17F
FORT KNOX      PTCLDY    59  49  69 SE3       30.15
$$

KYZ035>037-039>044-047>052-055>060-089>105-220600-
NORTHEAST KENTUCKY

CITY           SKY/WX    TMP DP  RH WIND       PRES   REMARKS
LEXINGTON      MOCLDY    60  48  64 SE7       30.21F
COVINGTON      PTCLDY    57  49  74 S8        30.19S
FRANKFORT      PTCLDY    58  48  69 SE3       30.19F
$$

KYZ054-064>069-076>088-106>120-220600-
SOUTHEAST KENTUCKY

CITY           SKY/WX    TMP DP  RH WIND       PRES   REMARKS
JACKSON        CLOUDY    61  48  62 S3        30.24S
LONDON         CLOUDY    50  48  93 CALM      30.23F
SOMERSET       MOCLDY    52  52 100 CALM      30.25S
MIDDLESBORO    MOCLDY    51  51 100 CALM      30.27F
MONTICELLO     MOCLDY    51  48  89 VRB7      30.24F
$$




USA.gov is the U.S. government's official web portal to all federal, state and local government web resources and services.